Location: Caltech
(34.1382°N, 118.1253°W)
Time: 12:25:06
(UTC-08:00)

Cosmos 1980 Rocket - Visible Passes

Search period start: 21 November 2014 00:00
Search period end: 01 December 2014 00:00
Orbit: 830 x 850 km, 71.0° (Epoch: 20 November)

Date Brightness Start Highest point End Pass type
(mag) Time Alt. Az. Time Alt. Az. Time Alt. Az.
21 Nov 3.8 17:49:44 10° NNE 17:51:44 14° NE 17:51:44 14° NE visible
21 Nov 4.0 19:31:44 10° NNW 19:33:34 21° NNW 19:33:34 21° NNW visible
22 Nov 3.7 17:34:21 10° NNE 17:37:08 14° NE 17:37:40 14° ENE visible
22 Nov 3.2 19:16:07 10° NNW 19:19:32 38° NNW 19:19:32 38° NNW visible
23 Nov 3.8 17:19:01 10° NNE 17:21:28 13° NE 17:23:54 10° E visible
23 Nov 2.1 19:00:30 10° NNW 19:06:06 80° WSW 19:06:06 80° WSW visible
24 Nov 2.1 18:44:54 10° NNW 18:50:31 85° WSW 18:54:18 21° SSE visible
25 Nov 2.1 18:29:18 10° NNW 18:34:55 89° ENE 18:40:29 10° SSE visible
26 Nov 2.0 18:13:42 10° NNW 18:19:19 84° ENE 18:24:53 10° SSE visible
27 Nov 2.1 17:58:06 10° NNW 18:03:43 78° ENE 18:09:16 10° SSE visible
27 Nov 5.3 19:46:06 10° W 19:46:54 10° W 19:47:42 10° WSW visible
28 Nov 2.1 17:42:31 10° NNW 17:48:07 73° ENE 17:53:39 10° SSE visible
28 Nov 5.3 19:29:41 10° W 19:31:21 11° W 19:33:01 10° WSW visible
29 Nov 2.1 17:26:55 10° NNW 17:32:30 68° ENE 17:38:02 10° SSE visible
29 Nov 5.3 19:13:35 10° WNW 19:15:47 12° W 19:17:59 10° WSW visible
30 Nov 2.2 17:11:21 10° NNW 17:16:54 63° ENE 17:22:24 10° SSE visible
30 Nov 5.2 18:57:37 10° WNW 19:00:14 14° W 19:02:51 10° SW visible
